[[{"header":{"parameterUnit":"m.s-1","parameterCategory":1,"la1":30.2991,"la2":30.254,"lo1":-89.0895,"lo2":-89.0444,"dx":0.0017,"dy":0.0017,"nx":28,"ny":28,"refTime":"2022-12-16T09:00:00:Z","depth":0,"parameterNumber":2,"parameterNumberName":"U-component_of_WINDS"},"data":[0,0,0,0,0,0,0,0,0,0,0,0,0,0,0,0,0,0,0,0,0,0,0,0,0,0,0,0,0,0,0,0,0,0,0,0,0,0,0,0,0,0,0,0,0,0,0,0,0,0,0,0,0,0,0,0,0,0,-1.7154,-1.7154,0,-1.7177,-1.7177,-1.7178,-1.7148,-1.7147,-1.7146,-1.7145,-1.7169,-1.717,-1.7172,0,0,0,0,0,0,0,0,0,0,0,0,0,-1.7084,-1.7085,-1.7154,-1.7154,-1.7155,-1.7177,-1.7177,-1.7178,-1.7148,-1.7147,-1.7146,-1.7145,-1.7168,-1.717,-1.7172,0,0,0,0,0,0,0,0,0,0,0,0,0,-1.7112,-1.7086,-1.7154,-1.7143,-1.7142,-1.7177,-1.7177,-1.7178,-1.7149,-1.7147,-1.7145,-1.7144,-1.7168,-1.717,-1.7172,-1.722,0,0,-1.718,-1.7181,0,0,0,0,0,0,0,0,-1.711,-1.7114,-1.7144,-1.7144,-1.7143,-1.7158,-1.7161,-1.7192,-1.7149,-1.7146,-1.7145,-1.7143,-1.7167,-1.7169,-1.7177,-1.7221,-1.7222,-1.718,-1.7182,-1.7183,-1.7183,0,0,0,0,0,0,0,-1.7108,-1.7113,-1.7163,-1.7145,-1.7144,-1.7136,-1.7138,-1.7167,-1.7165,-1.7146,-1.7144,-1.7147,-1.7166,-1.7175,-1.7177,-1.7222,-1.718,-1.7182,-1.7184,-1.7185,-1.7305,-1.7307,0,0,0,0,0,0,-1.7108,-1.7112,-1.7162,-1.7164,-1.7122,-1.7139,-1.7141,-1.7155,-1.7165,-1.7165,-1.7149,-1.7146,-1.7171,-1.7174,-1.7178,-1.7233,-1.7183,-1.7185,-1.7186,-1.7303,-1.7305,-1.7307,0,0,0,0,0,0,-1.7106,-1.7112,-1.7161,-1.7137,-1.7143,-1.7142,-1.7157,-1.7156,-1.7165,-1.7167,-1.7166,-1.7158,-1.717,-1.7174,-1.7209,-1.7234,-1.7186,-1.7188,-1.7301,-1.7304,-1.7306,-1.7345,0,0,0,0,0,0,-1.7104,-1.7112,-1.713,-1.7138,-1.7144,-1.7193,-1.7159,-1.7158,-1.7169,-1.7166,-1.7175,-1.7175,-1.7169,-1.7206,-1.7212,-1.7236,-1.719,-1.7299,-1.7302,-1.7305,-1.7342,-1.7349,-1.7355,0,0,0,0,0,-1.7102,-1.7141,-1.7131,-1.7138,-1.7167,-1.7194,-1.7198,-1.719,-1.7171,-1.7189,-1.719,-1.7175,-1.723,-1.721,-1.7216,-1.7242,-1.7297,-1.7301,-1.7305,-1.7339,-1.7347,-1.7355,0,0,0,0,0,0,-1.7136,-1.7141,-1.7131,-1.7173,-1.7184,-1.7189,-1.7212,-1.72,-1.7216,-1.7212,-1.7202,-1.7204,-1.7241,-1.7245,-1.7222,-1.7287,-1.7261,-1.7266,-1.7284,-1.7292,-1.7298,-1.7297,-1.7192,0,0,0,0,0,-1.7149,-1.7171,-1.7174,-1.7211,-1.7216,-1.7213,-1.7225,-1.7218,-1.7228,-1.7232,-1.7236,-1.7246,-1.7266,-1.7279,-1.7297,-1.7342,-1.7343,-1.7363,-1.7369,-1.7374,-1.7379,-1.7402,-1.7411,-1.732,-1.732,-1.732,0,0,-1.7175,-1.718,-1.7195,-1.7218,-1.7225,-1.7247,-1.7217,-1.7243,-1.7259,-1.7236,-1.7269,-1.7272,-1.7283,-1.7323,-1.734,-1.7327,-1.7405,-1.7379,-1.7384,-1.7386,-1.7407,-1.7416,-1.7424,-1.7323,-1.7322,-1.7322,0,0,-1.7234,-1.724,-1.7272,-1.7279,-1.729,-1.7287,-1.7295,-1.7302,-1.7303,-1.7336,-1.7319,-1.7338,-1.7373,-1.7381,-1.7389,-1.745,-1.7437,-1.7457,-1.7491,-1.7514,-1.7521,-1.7527,-1.7549,-1.7556,-1.7461,-1.7461,-1.7461,0,-1.7265,-1.7299,-1.7289,-1.7316,-1.7326,-1.7306,-1.7337,-1.7344,-1.7361,-1.7368,-1.7353,-1.7395,-1.7401,-1.7442,-1.7457,-1.7464,-1.7472,-1.7456,-1.7521,-1.7527,-1.7533,-1.7553,-1.7561,-1.7464,-1.7463,-1.7463,-1.7463,0,-1.7336,-1.736,-1.7383,-1.7399,-1.7412,-1.7441,-1.7435,-1.745,-1.7441,-1.744,-1.7473,-1.748,-1.7498,-1.7508,-1.75,-1.7547,-1.7539,-1.7522,-1.7495,-1.7544,-1.7563,-1.757,-1.7467,-1.7466,-1.7466,-1.7465,0,0,-1.7419,-1.7428,-1.7437,-1.7444,-1.7454,-1.7471,-1.7499,-1.7517,-1.7529,-1.7541,-1.7563,-1.7592,-1.7576,-1.7586,-1.7579,-1.7599,-1.7646,-1.758,-1.758,-1.7592,-1.7698,-1.7711,-1.772,-1.7637,-1.7638,-1.764,-1.7697,0,-1.7478,-1.7525,-1.7517,-1.7563,-1.7584,-1.7564,-1.7588,-1.7597,-1.7596,-1.7614,-1.7613,-1.7634,-1.7612,-1.7617,-1.7636,-1.7637,-1.7668,-1.7632,-1.7658,-1.7659,-1.7656,-1.773,-1.7744,-1.7798,-1.7705,-1.7706,-1.7707,0,-1.7553,-1.7567,-1.7615,-1.7621,-1.7629,-1.7651,-1.7666,-1.7683,-1.7692,-1.7691,-1.7701,-1.769,-1.7717,-1.7689,-1.7725,-1.7701,-1.7711,-1.7713,-1.7715,-1.7717,-1.7686,-1.7734,-1.7815,-1.7824,-1.7719,-1.7718,-1.7717,0,-1.7609,-1.7639,-1.7672,-1.7678,-1.7685,-1.7701,-1.7705,-1.7712,-1.7723,-1.7736,-1.7743,-1.776,-1.7769,-1.7781,-1.7775,-1.7755,-1.7813,-1.7784,-1.7812,-1.7812,-1.7825,-1.7824,-1.7909,-1.7831,-1.7831,-1.7831,-1.7831,0,-1.7676,-1.7706,-1.7696,-1.7717,-1.7749,-1.7739,-1.7772,-1.7773,-1.778,-1.7799,-1.7783,-1.7802,-1.7792,-1.781,-1.7805,-1.7836,-1.784,-1.7839,-1.7838,-1.7841,-1.7841,-1.7847,-1.7844,-1.7833,-1.7833,-1.7832,-1.7832,0,-1.7743,-1.7738,-1.7772,-1.7776,-1.7778,-1.7802,-1.7805,-1.7823,-1.7821,-1.7846,-1.7852,-1.7848,-1.7868,-1.7863,-1.7885,-1.7881,-1.7921,-1.7914,-1.7918,-1.7916,-1.7944,-1.7941,-1.8035,-1.8047,-1.7962,-1.7963,-1.7963,0,-1.7787,-1.7809,-1.7815,-1.7827,-1.7832,-1.7851,-1.7862,-1.7852,-1.7864,-1.7876,-1.7893,-1.7911,-1.7926,-1.7959,-1.7958,-1.7975,-1.7969,-1.8001,-1.7971,-1.7974,-1.7969,-1.7968,-1.797,-1.8007,-1.8008,-1.8008,-1.8009,0,-1.7864,-1.786,-1.7876,-1.7892,-1.7905,-1.7917,-1.7927,-1.7937,-1.7928,-1.7942,-1.7963,-1.7974,-1.7996,-1.8014,-1.8029,-1.8033,-1.802,-1.8018,-1.8025,-1.8029,-1.803,-1.803,-1.7934,-1.8016,-1.8015,-1.8015,-1.8015,-1.8014,-1.7921,-1.794,-1.7946,-1.7965,-1.7971,-1.7981,-1.7998,-1.7998,-1.8014,-1.8031,-1.8024,-1.8047,-1.8055,-1.8073,-1.8079,-1.8096,-1.8084,-1.8095,-1.8098,-1.8101,-1.8104,-1.8027,-1.8099,-1.8099,-1.8099,-1.8099,-1.8098,0,-1.7997,-1.8,-1.8017,-1.8032,-1.8046,-1.8031,-1.8041,-1.8054,-1.8075,-1.8083,-1.8097,-1.812,-1.8137,-1.8138,-1.8154,-1.8168,-1.8163,-1.8173,-1.8172,-1.8173,-1.8114,-1.8106,-1.8177,-1.8177,-1.8177,-1.8177,-1.8177,-1.8177,-1.8039,-1.807,-1.8066,-1.81,-1.8103,-1.8125,-1.8132,-1.8141,-1.8147,-1.8173,-1.8187,-1.8187,-1.8192,-1.8208,-1.8223,-1.8223,-1.823,-1.8243,-1.824,-1.8185,-1.8177,-1.817,-1.8162,-1.8244,-1.8244,-1.8298,-1.8298,-1.8299]},{"header":{"parameterUnit":"m.s-1","parameterCategory":1,"la1":30.2991,"la2":30.254,"lo1":-89.0895,"lo2":-89.0444,"dx":0.0017,"dy":0.0017,"nx":28,"ny":28,"refTime":"2022-12-16T09:00:00:Z","depth":0,"parameterNumber":3,"parameterNumberName":"V-component_of_WINDS"},"data":[0,0,0,0,0,0,0,0,0,0,0,0,0,0,0,0,0,0,0,0,0,0,0,0,0,0,0,0,0,0,0,0,0,0,0,0,0,0,0,0,0,0,0,0,0,0,0,0,0,0,0,0,0,0,0,0,0,0,0.8688,0.8688,0,0.8641,0.864,0.864,0.8612,0.8612,0.8612,0.8612,0.856,0.8559,0.8558,0,0,0,0,0,0,0,0,0,0,0,0,0,0.8754,0.8753,0.8688,0.8688,0.8687,0.8641,0.864,0.8639,0.8612,0.8612,0.8612,0.8612,0.8561,0.8559,0.8558,0,0,0,0,0,0,0,0,0,0,0,0,0,0.8718,0.8753,0.8688,0.8668,0.8666,0.8641,0.864,0.8639,0.8612,0.8612,0.8612,0.8612,0.8561,0.8559,0.8558,0.8549,0,0,0.8552,0.8551,0,0,0,0,0,0,0,0,0.872,0.8716,0.8672,0.8669,0.8667,0.8632,0.8644,0.8609,0.8612,0.8632,0.8612,0.8611,0.8584,0.858,0.8572,0.8546,0.8544,0.8552,0.855,0.855,0.8549,0,0,0,0,0,0,0,0.8723,0.8717,0.8669,0.8671,0.8668,0.8661,0.8655,0.8638,0.861,0.863,0.8628,0.8623,0.8583,0.8574,0.857,0.8543,0.8552,0.855,0.8549,0.8548,0.8509,0.8509,0,0,0,0,0,0,0.8729,0.872,0.8671,0.8668,0.8694,0.866,0.8654,0.8643,0.861,0.8604,0.8623,0.8622,0.8577,0.8573,0.8568,0.8556,0.855,0.8548,0.8547,0.8509,0.8509,0.8509,0,0,0,0,0,0,0.873,0.8725,0.8673,0.8693,0.8686,0.8659,0.8647,0.8642,0.8633,0.8604,0.8599,0.8619,0.8577,0.8571,0.8554,0.8554,0.8547,0.8545,0.8509,0.8509,0.8509,0.8532,0,0,0,0,0,0,0.8732,0.8725,0.8722,0.8693,0.8685,0.866,0.8647,0.8642,0.863,0.8628,0.8599,0.8594,0.8576,0.8557,0.8552,0.8551,0.8544,0.8509,0.8509,0.8509,0.8531,0.8532,0.8534,0,0,0,0,0,0.8735,0.8729,0.8722,0.8716,0.868,0.866,0.8655,0.8635,0.863,0.8627,0.8608,0.8595,0.8555,0.8556,0.855,0.8548,0.8509,0.8509,0.8509,0.853,0.8532,0.8534,0,0,0,0,0,0,0.8757,0.8725,0.8716,0.8702,0.8684,0.8655,0.865,0.8638,0.862,0.8619,0.8595,0.8588,0.8574,0.8559,0.8561,0.8538,0.853,0.853,0.8548,0.855,0.8552,0.8555,0.8542,0,0,0,0,0,0.8761,0.8747,0.872,0.871,0.8701,0.8677,0.8668,0.8654,0.8634,0.8626,0.8606,0.8587,0.857,0.8559,0.8542,0.8529,0.8522,0.8525,0.8527,0.8528,0.8527,0.852,0.8521,0.851,0.851,0.851,0,0,0.8767,0.8748,0.8741,0.8714,0.8698,0.8685,0.8671,0.8657,0.8646,0.8624,0.8607,0.8592,0.8569,0.8554,0.8546,0.8541,0.8529,0.8529,0.853,0.8528,0.852,0.8521,0.8522,0.851,0.851,0.851,0,0,0.8772,0.8757,0.8747,0.8732,0.8709,0.8693,0.8691,0.8665,0.8654,0.8637,0.862,0.8607,0.8579,0.8563,0.8551,0.8552,0.8539,0.8547,0.8556,0.8548,0.8549,0.855,0.855,0.8551,0.8547,0.8547,0.8547,0,0.8783,0.8762,0.8743,0.873,0.8719,0.8699,0.8689,0.8675,0.8648,0.864,0.8635,0.86,0.8583,0.8564,0.8565,0.8556,0.8552,0.855,0.8551,0.8551,0.8552,0.8551,0.8552,0.8548,0.8548,0.8548,0.8548,0,0.8777,0.8763,0.8757,0.8733,0.8721,0.8709,0.8688,0.8678,0.8666,0.8651,0.8634,0.8613,0.8592,0.8587,0.8574,0.8567,0.8564,0.8556,0.8547,0.8554,0.8554,0.8553,0.855,0.8549,0.8549,0.8549,0,0,0.8793,0.8759,0.8757,0.8746,0.872,0.8709,0.8697,0.8677,0.8669,0.8651,0.864,0.8617,0.861,0.8596,0.8582,0.8576,0.8579,0.8568,0.8567,0.8571,0.8569,0.8575,0.8575,0.857,0.857,0.857,0.8571,0,0.8794,0.8772,0.8755,0.8739,0.8726,0.8708,0.8697,0.868,0.8666,0.8653,0.8637,0.8621,0.8612,0.8604,0.8597,0.858,0.8578,0.858,0.8559,0.8559,0.8565,0.8575,0.8581,0.8583,0.857,0.857,0.857,0,0.8792,0.8776,0.8759,0.8735,0.8729,0.872,0.8701,0.8689,0.8669,0.8659,0.8646,0.8632,0.8618,0.8612,0.8592,0.8594,0.8585,0.8575,0.8575,0.8571,0.8564,0.8571,0.8582,0.8583,0.857,0.857,0.857,0,0.8805,0.8779,0.8766,0.8757,0.8729,0.8724,0.8712,0.8692,0.8682,0.8665,0.8658,0.864,0.8629,0.8616,0.8597,0.8594,0.8579,0.8571,0.857,0.8571,0.8567,0.8567,0.8576,0.8563,0.8563,0.8563,0.8563,0,0.8807,0.8798,0.8772,0.8764,0.8752,0.8733,0.8722,0.8709,0.8692,0.8681,0.8664,0.8654,0.863,0.8617,0.8602,0.8588,0.8584,0.8575,0.8571,0.8576,0.8577,0.8569,0.8568,0.8563,0.8563,0.8563,0.8563,0,0.882,0.8802,0.8787,0.8763,0.8756,0.8749,0.8728,0.8719,0.8705,0.8691,0.8687,0.8664,0.8648,0.8628,0.8605,0.8595,0.8582,0.8577,0.8589,0.8587,0.8587,0.8587,0.859,0.8589,0.8577,0.8577,0.8577,0,0.8822,0.8815,0.879,0.8782,0.8771,0.8757,0.8747,0.8728,0.8718,0.8696,0.869,0.8673,0.8658,0.8632,0.8613,0.8596,0.8589,0.8592,0.8586,0.8592,0.8589,0.8589,0.8588,0.8593,0.8593,0.8593,0.8593,0,0.8828,0.882,0.8806,0.879,0.8778,0.8764,0.8749,0.8743,0.8721,0.871,0.8694,0.8683,0.866,0.8643,0.8623,0.861,0.8598,0.8596,0.8594,0.8599,0.8606,0.8602,0.8592,0.8595,0.8595,0.8595,0.8595,0.8595,0.8835,0.8828,0.881,0.8795,0.8782,0.8769,0.876,0.8745,0.8731,0.8712,0.8702,0.8686,0.8667,0.864,0.8628,0.8615,0.861,0.8608,0.8608,0.8608,0.8609,0.8609,0.8611,0.8611,0.8611,0.8611,0.8611,0,0.884,0.8828,0.8815,0.8795,0.8784,0.8775,0.8758,0.8749,0.8735,0.8719,0.8705,0.8687,0.8671,0.8651,0.8634,0.8627,0.8621,0.8623,0.8623,0.862,0.8614,0.8617,0.8628,0.8628,0.8628,0.8628,0.8628,0.8628,0.8841,0.8829,0.8819,0.8799,0.8787,0.8772,0.8763,0.8751,0.8738,0.8719,0.8706,0.8694,0.8676,0.8658,0.8642,0.8637,0.8631,0.8635,0.8628,0.8622,0.862,0.8619,0.8621,0.8634,0.8634,0.8635,0.8635,0.8635]}]]